sat.trackr.live / text

‹ back to catalog

STARLINK-34386

NORAD 66096 · 2025-236L

PAYLOAD ACTIVE UNKNOWN

§ Identity

Operator
Country
US
Launch date
2025-10-19
Launch site
AFWTR
Launch vehicle
Mass (kg)
RCS (m²)

Purposes: comms

External: N2YO · Heavens-Above · Gunter

§ Orbital elements

Epoch: 2026-09-20T05:56:33.081504Z

Period
93.85 min
Inclination
53.1583°
Eccentricity
0.0001369
Mean motion
15.34415878 rev/d
Perigee alt
461.7 km
Apogee alt
463.6 km
Semi-major
6,840.8 km
B*
-1.4539e-4
RAAN
278.6557°
Arg perigee
66.2212°
Mean anomaly
293.8934°
Rev number
5,275

§ Raw data

STARLINK-343861 66096U 25236L   26263.24760511 -.00005288  00000+0 -14539-3 0  99992 66096  53.1583 278.6557 0001369  66.2212 293.8934 15.34415878 52755

JSON: /api/v1/satellites/66096 · /tle

For live sub-satellite position, see the globe view (requires WebGL).

§ Visibility from observer

Set your observer location to see the next 7 days of passes ≥ 10°. The values pass through the URL so the page stays shareable.

No JS? Fill the form by hand. The geolocation button needs JavaScript.